This demonstration page uses our WeatherBlox Daily Observations layout. Learn more.

Hourly Observations for August 30, 2020

Temp ( °F °C ) Dew Point ( °F °C ) Humidity (%) Winds ( mph kmh ) Pressure ( in mb ) Visibility ( mi km ) Precip ( " mm )
12:15 am 00:15 Clear 73 23 59 15 61 61 NNW 9 15 29.72 1006 10 16.0934 0 0
12:35 am 00:35 Clear 72 22 59 15 65 65 NNW 10 17 29.72 1006 10 16.0934 0 0
12:55 am 00:55 Clear 72 22 59 15 65 65 N 10 17 29.73 1007 10 16.0934 0 0
1:15 am 01:15 Clear 72 22 59 15 65 65 N 8 13 29.73 1007 10 16.0934 0 0
1:35 am 01:35 Clear 70 21 59 15 69 69 NNW 7 11 29.74 1007 10 16.0934 0 0
1:55 am 01:55 Clear 70 21 59 15 69 69 NW 5 7 29.74 1007 10 16.0934 0 0
2:15 am 02:15 Clear 68 20 61 16 78 78 WNW 5 7 29.74 1007 10 16.0934 0 0
2:35 am 02:35 Clear 68 20 61 16 78 78 W 5 7 29.74 1007 10 16.0934 0 0
2:55 am 02:55 Clear 66 19 61 16 83 83 SW 3 6 29.74 1007 10 16.0934 0 0
3:15 am 03:15 Clear 64 18 61 16 88 88 SW 5 7 29.74 1007 10 16.0934 0 0
3:35 am 03:35 Clear 64 18 59 15 83 83 W 5 7 29.73 1007 10 16.0934 0 0
3:55 am 03:55 Clear 64 18 61 16 88 88 Calm 29.73 1007 10 16.0934 0 0
4:15 am 04:15 Clear 64 18 61 16 88 88 SSW 3 6 29.74 1007 10 16.0934 0 0
4:35 am 04:35 Clear 63 17 59 15 88 88 SSW 7 11 29.75 1007 10 16.0934 0 0
4:55 am 04:55 Clear 61 16 61 16 100 100 SW 6 9 29.75 1007 10 16.0934 0 0
5:15 am 05:15 Clear 63 17 59 15 88 88 WSW 5 7 29.75 1007 10 16.0934 0 0
5:35 am 05:35 Clear 61 16 59 15 94 94 SW 5 7 29.75 1007 10 16.0934 0 0
5:55 am 05:55 Clear 61 16 59 15 94 94 WSW 3 6 29.76 1008 10 16.0934 0 0
6:15 am 06:15 Clear 59 15 59 15 100 100 WNW 3 6 29.77 1008 10 16.0934 0 0
6:35 am 06:35 Clear 59 15 59 15 100 100 NW 7 11 29.77 1008 10 16.0934 0 0
6:55 am 06:55 Partly Cloudy 61 16 59 15 94 94 NW 7 11 29.79 1009 10 16.0934 0 0
7:15 am 07:15 Partly Cloudy 63 17 59 15 88 88 NW 6 9 29.8 1009 10 16.0934 0 0
7:35 am 07:35 Sunny 63 17 61 16 94 94 NNW 6 9 29.81 1009 10 16.0934 0 0
7:55 am 07:55 Sunny 66 19 61 16 83 83 NNW 6 9 29.81 1010 10 16.0934 0 0
8:15 am 08:15 Sunny 68 20 61 16 78 78 N 5 7 29.82 1010 10 16.0934 0 0
8:35 am 08:35 Sunny 70 21 61 16 73 73 NNW 5 7 29.82 1010 10 16.0934 0 0
8:55 am 08:55 Sunny 70 21 61 16 73 73 NNW 8 13 29.83 1010 10 16.0934 0 0
9:15 am 09:15 Sunny 72 22 59 15 65 65 NNW 10 17 29.84 1010 10 16.0934 0 0
9:35 am 09:35 Sunny 72 22 61 16 69 69 NNW 8 13 29.84 1010 10 16.0934 0 0
9:55 am 09:55 Partly Cloudy 72 22 59 15 65 65 N 8 13 29.85 1011 10 16.0934 0 0
10:15 am 10:15 Partly Cloudy 73 23 57 14 57 57 N 13 20 29.85 1011 10 16.0934 0 0
10:35 am 10:35 Partly Cloudy 73 23 59 15 61 61 N 9 15 29.85 1011 10 16.0934 0 0
10:55 am 10:55 Partly Cloudy 73 23 59 15 61 61 NNW 13 20 29.86 1011 10 16.0934 0 0
11:15 am 11:15 Partly Cloudy 75 24 59 15 57 57 NNW 10 17 29.86 1011 10 16.0934 0 0
11:35 am 11:35 Partly Cloudy 75 24 57 14 54 54 N 13 20 29.86 1011 10 16.0934 0 0
11:55 am 11:55 Partly Cloudy 77 25 59 15 54 54 NW 10 17 29.86 1011 10 16.0934 0 0
12:15 pm 12:15 Mostly Cloudy 77 25 59 15 54 54 NNW 12 19 29.86 1011 10 16.0934 0 0
12:35 pm 12:35 Partly Cloudy 77 25 57 14 51 51 NNW 10 17 29.86 1011 10 16.0934 0 0
12:55 pm 12:55 Partly Cloudy 79 26 59 15 51 51 W 8 13 29.86 1011 10 16.0934 0 0
1:15 pm 13:15 Partly Cloudy 79 26 59 15 51 51 NW 10 17 29.85 1011 10 16.0934 0 0
1:35 pm 13:35 Partly Cloudy 79 26 57 14 48 48 N 5 7 29.86 1011 10 16.0934 0 0
1:55 pm 13:55 Mostly Cloudy 77 25 57 14 51 51 NNW 8 13 29.86 1011 10 16.0934 0 0
2:15 pm 14:15 Partly Cloudy 79 26 59 15 51 51 NNW 10 17 29.86 1011 10 16.0934 0 0
2:35 pm 14:35 Mostly Cloudy 79 26 59 15 51 51 WNW 10 17 29.86 1011 10 16.0934 0 0
2:55 pm 14:55 Mostly Cloudy 79 26 57 14 48 48 NNW 9 15 29.86 1011 10 16.0934 0 0
3:15 pm 15:15 Mostly Cloudy 79 26 55 13 45 45 N 6 9 29.86 1011 10 16.0934 0 0
3:35 pm 15:35 Mostly Cloudy 81 27 57 14 45 45 NW 5 7 29.85 1011 10 16.0934 0 0
3:55 pm 15:55 Partly Cloudy 81 27 57 14 45 45 N 8 13 29.84 1011 10 16.0934 0 0
4:15 pm 16:15 Partly Cloudy 79 26 55 13 45 45 NNW 5 7 29.85 1011 10 16.0934 0 0
4:35 pm 16:35 Mostly Cloudy 81 27 57 14 45 45 W 7 11 29.85 1011 10 16.0934 0 0
4:55 pm 16:55 Partly Cloudy 81 27 55 13 42 42 N 8 13 29.85 1011 10 16.0934 0 0
5:15 pm 17:15 Partly Cloudy 79 26 55 13 45 45 Calm 29.85 1011 10 16.0934 0 0
5:35 pm 17:35 Partly Cloudy 81 27 55 13 42 42 N 6 9 29.85 1011 10 16.0934 0 0
5:55 pm 17:55 Partly Cloudy 79 26 55 13 45 45 N 5 7 29.85 1011 10 16.0934 0 0
6:15 pm 18:15 Partly Cloudy 79 26 54 12 42 42 NNW 5 7 29.85 1011 10 16.0934 0 0
6:35 pm 18:35 Partly Cloudy 79 26 55 13 45 45 NNE 5 7 29.86 1011 10 16.0934 0 0
6:55 pm 18:55 Cloudy 79 26 55 13 45 45 NNE 5 7 29.86 1011 10 16.0934 0 0
7:15 pm 19:15 Partly Cloudy 79 26 55 13 45 45 ENE 5 7 29.86 1011 10 16.0934 0 0
7:35 pm 19:35 Mostly Cloudy 77 25 55 13 47 47 NE 3 6 29.87 1012 10 16.0934 0 0
7:55 pm 19:55 Mostly Cloudy 77 25 57 14 51 51 Calm 29.88 1012 10 16.0934 0 0
8:15 pm 20:15 Mostly Cloudy 72 22 61 16 69 69 Calm 29.89 1012 10 16.0934 0 0
8:35 pm 20:35 Partly Cloudy 70 21 63 17 78 78 NNW 3 6 29.9 1013 10 16.0934 0 0
8:55 pm 20:55 Clear 70 21 63 17 78 78 Calm 29.91 1013 10 16.0934 0 0
9:15 pm 21:15 Partly Cloudy 68 20 63 17 83 83 Calm 29.92 1013 10 16.0934 0 0
9:35 pm 21:35 Clear 66 19 63 17 88 88 Calm 29.92 1013 10 16.0934 0 0
9:55 pm 21:55 Clear 66 19 63 17 88 88 Calm 29.92 1013 10 16.0934 0 0
10:15 pm 22:15 Clear 66 19 63 17 88 88 Calm 29.93 1014 10 16.0934 0 0
10:35 pm 22:35 Clear 64 18 63 17 94 94 Calm 29.94 1014 10 16.0934 0 0
10:55 pm 22:55 Clear 64 18 63 17 94 94 Calm 29.94 1014 10 16.0934 0 0
11:15 pm 23:15 Clear 63 17 61 16 94 94 Calm 29.95 1014 10 16.0934 0 0
11:35 pm 23:35 Partly Cloudy 63 17 61 16 94 94 Calm 29.96 1014 10 16.0934 0 0
11:55 pm 23:55 Partly Cloudy 63 17 61 16 94 94 Calm 29.96 1014 10 16.0934 0 0

Powered by AerisWeather